Flag for Japan Weather past 2 weeks in Nagasaki, Japan

Now
84 °F

Passing clouds.


Feels Like: 92 °F
Forecast: 78 / 93 °F
Wind: 1 mph from North

Location: Nagasaki Airport

Current Time: Aug 5, 2015 at 9:19:36 AM

Latest Report: Aug 5, 2015 at 9:00 AM


Visibility: 6 mi

Pressure: 29.80 "Hg

Humidity: 74%

Dew point: 75 °F

Location of NagasakiLocation

Historic Weather in Nagasaki — Graph

°F

Nagasaki temperature yesterday

Maximum temperature yesterday: 91 °F (at 11:48 AM)
Minimum temperature yesterday: 79 °F (at 7:00 AM)
Average temperature yesterday: 87 °F

Past Weeks' High & Low Weather Summary

 TemperatureHumidityPressure
High93 °F (Jul 30, 1:00 PM)100% (Jul 21, 9:50 PM)29.92 "Hg (Jul 21, 9:50 PM)
Low75 °F (Jul 22, 12:00 PM)52% (Aug 2, 2:00 PM)29.53 "Hg (Jul 26, 5:00 PM)
Average84 °F77%29.81 "Hg
* Reported Jul 21 8:00 AM — Aug 5 8:00 AM, Nagasaki, Weather by CustomWeather, © 2015

Note: Actual official high and low records may vary slightly from our data, if they occured in-between our weather recording intervals... More about our weather records

Advertising

Nagasaki weather history for previous 24 hours

 ConditionsComfort  
Time TempWeatherWind HumidityBarometerVisibility
8:00 AM
Wed, Aug 5
81 °FPassing clouds.3 mph84%29.80 "Hg4 mi
7:00 AM79 °FPassing clouds.2 mph89%29.80 "Hg5 mi
9:00 PM
Tue, Aug 4
82 °FPassing clouds.6 mph84%29.80 "HgN/A
8:00 PM84 °FPassing clouds.7 mph70%29.80 "HgN/A
7:00 PM84 °FScattered clouds.9 mph70%29.77 "HgN/A
6:00 PM86 °FPassing clouds.12 mph62%29.74 "HgN/A
5:00 PM90 °FPassing clouds.13 mph55%29.77 "HgN/A
4:00 PM90 °FPassing clouds.14 mph55%29.77 "HgN/A
3:00 PM90 °FPassing clouds.10 mph63%29.77 "HgN/A
2:00 PM90 °FPassing clouds.9 mph63%29.80 "HgN/A
1:00 PM91 °FPassing clouds.5 mph52%29.80 "HgN/A
12:00 PM90 °FPassing clouds.5 mph55%29.80 "HgN/A
11:48 AM91 °FPassing clouds.3 mph59%29.80 "HgN/A
11:00 AM88 °FPassing clouds.1 mph66%29.83 "HgN/A
10:00 AM86 °FPassing clouds.3 mph70%29.83 "HgN/A
9:00 AM84 °FPassing clouds.3 mph70%29.86 "HgN/A
Weather by CustomWeather, © 2015

See weather overviewHow to use our weather pages